User: anonymous   Login
Location: Unspecified
(0.0000°N, 0.0000°E)
Time: 05:33:46
(UTC+00:00)
Language:

Cosmos 1500 - Orbit

View from above orbital plane
View from above orbital plane
View from above satellite
View from above satellite

Ground track
Ground track

The orbit data is extracted from the following two-line orbital elements,

1 14372U 83099A   18017.42370900 +.00000422 +00000-0 +19128-4 0  9991
2 14372 082.5166 131.8418 0016721 064.4092 336.9665 15.17827917869992
Epoch (UTC): 17 January 2018 10:10:08
Eccentricity: 0.0016721
inclination: 82.5166°
perigee height: 501 km
apogee height: 524 km
right ascension of ascending node: 131.8418°
argument of perigee: 64.4092°
revolutions per day: 15.17827917
mean anomaly at epoch: 336.9665°
orbit number at epoch: 86999

The dashed part of the orbit path shows where the satellite is in the earth's shadow,  

DLR